Bookmark and Share
Track history (hours):
 

Trine Charlotte

Last reported at 2014-Apr-18 19:12 UTC. Time now 2014-Apr-24 11:22 UTC.
Position N 67°32' E 014°30'.

Length 66 m; draft 4.6 m.

Type: . MMSI: 257233000.

NotesDate/timePositionNaut miles runAvg speedWind from/ knotsBaromVisibWave heightAir tempDewpointWater temp
2014-Apr-18 19:12N 67°32' E 014°30'710.2
2014-Apr-18 18:33N 67°26' E 014°27'1010.1
2014-Apr-18 17:33N 67°17' E 014°15'1110.5
2014-Apr-18 16:33N 67°08' E 014°01'1310.2
2014-Apr-18 15:19N 66°59' E 013°37'32 9.7
2014-Apr-18 12:04N 66°31' E 012°58'510.2
2014-Apr-18 11:31N 66°26' E 012°58'28 1.3
2014-Apr-17 14:14N 66°18' E 014°06'  
2014-Apr-13 07:33N 66°17' E 012°55'9 8.4
2014-Apr-13 06:31N 66°26' E 012°58'8 7.8
2014-Apr-13 05:28N 66°34' E 013°04'9 8.4
2014-Apr-13 04:21N 66°43' E 013°10'32 8.5
2014-Apr-13 00:33N 67°08' E 014°02'8 8.3
2014-Apr-12 23:33N 67°16' E 014°12'8 8.5
2014-Apr-12 22:33N 67°23' E 014°24'8 8.2
2014-Apr-12 21:33N 67°31' E 014°29'13 0.3
2014-Apr-10 22:33N 67°44' E 014°31'1010.1
2014-Apr-10 21:33N 67°33' E 014°30'1010.2
2014-Apr-10 20:33N 67°23' E 014°26'1010.1
2014-Apr-10 19:33N 67°15' E 014°12'1110.4
2014-Apr-10 18:30N 67°06' E 013°57'1010.0
2014-Apr-10 17:33N 66°60' E 013°37'32 9.9
2014-Apr-10 14:20N 66°32' E 012°58'810.4
2014-Apr-10 13:33N 66°24' E 012°58'  

Dump ship's entire track history

sailing weather and tide predictions

Trine Charlotte — LMRY — position and weather